Weather History for Saipan, MP

Change the Weather History Date:

Saturday, November 2, 2013

  Actual Average Record
Temperature  
Mean Temperature 82 °F -  
Max Temperature 87 °F 84 °F 100 °F (1999)
Min Temperature 77 °F 75 °F 75 °F (1997)
Cooling Degree Days 18    
Growing Degree Days 32 (Base 50)    
Moisture  
Dew Point 75 °F    
Average Humidity 80    
Maximum Humidity 94    
Minimum Humidity 72    
Precipitation  
Precipitation 0.20 in - - ()
Sea Level Pressure  
Sea Level Pressure 29.95 in    
Wind  
Wind Speed 15 mph (ENE)    
Max Wind Speed 18 mph    
Max Gust Speed 30 mph    
Visibility 10 miles    
Events Rain    
Averages and records for this station are not official NWS values.
T = Trace of Precipitation, MM = Missing Value Source: NWS Daily Summary

Daily Weather History Graph

Daily Weather History Graph

Search for Another Location

Airport:

Trip Planner

Search our weather history database for the weather conditions in past years. The results will help you decide how hot, cold, wet, or windy it might be!

Date:

Astronomy

Nov. 02, 2013 Rise Set
Actual Time 6:13 AM ChST 5:47 PM ChST
Civil Twilight 5:51 AM ChST 6:09 PM ChST
Nautical Twilight 5:25 AM ChST 6:35 PM ChST
Astronomical Twilight 5:00 AM ChST 7:00 PM ChST
Moon 4:41 AM ChST (11/2) 4:44 PM ChST (11/2)
Length of Visible Light 12h 18m
Length of Day
11h 34m
Waning Crescent, 3% of the Moon is Illuminated
Nov 2
Waning Crescent
Nov 3
New
Nov 10
First Quarter
Nov 18
Full
Nov 26
Last Quarter

Hourly Weather History & Observations

Time (ChST) Temp. Heat Index Dew Point Humidity Pressure Visibility Wind Dir Wind Speed Gust Speed Precip Events Conditions
12:54 AM 81.0 °F 87.3 °F 75.9 °F 85% 29.96 in 10.0 mi ENE 16.1 mph - N/A   Scattered Clouds
1:54 AM 80.1 °F 84.5 °F 73.9 °F 81% 29.94 in 10.0 mi NE 17.3 mph - N/A   Scattered Clouds
2:54 AM 81.0 °F 86.2 °F 73.9 °F 79% 29.93 in 10.0 mi ENE 17.3 mph - N/A   Scattered Clouds
3:54 AM 81.0 °F 86.2 °F 73.9 °F 79% 29.93 in 10.0 mi ENE 16.1 mph - N/A   Scattered Clouds
4:54 AM 80.1 °F 85.1 °F 75.0 °F 85% 29.94 in 10.0 mi ENE 15.0 mph - N/A   Scattered Clouds
5:54 AM 80.1 °F 84.5 °F 73.9 °F 81% 29.95 in 10.0 mi East 12.7 mph - N/A   Partly Cloudy
6:54 AM 81.0 °F 86.7 °F 75.0 °F 82% 29.97 in 10.0 mi ENE 12.7 mph - N/A   Clear
7:54 AM 82.9 °F 90.2 °F 75.0 °F 77% 29.98 in 10.0 mi ENE 15.0 mph - N/A   Scattered Clouds
8:54 AM 84.0 °F 91.9 °F 75.0 °F 74% 30.00 in 10.0 mi ENE 16.1 mph - N/A   Scattered Clouds
9:54 AM 86.0 °F 96.0 °F 75.9 °F 72% 30.01 in 10.0 mi ENE 18.4 mph - N/A   Mostly Cloudy
10:54 AM 86.0 °F 96.0 °F 75.9 °F 72% 29.98 in 10.0 mi ENE 18.4 mph - N/A   Partly Cloudy
11:54 AM 86.0 °F 96.9 °F 77.0 °F 74% 29.96 in 10.0 mi ENE 18.4 mph - N/A   Mostly Cloudy
12:54 PM 87.1 °F 98.8 °F 77.0 °F 72% 29.94 in 10.0 mi ENE 16.1 mph 24.2 mph N/A   Partly Cloudy
1:54 PM 86.0 °F 96.9 °F 77.0 °F 74% 29.91 in 10.0 mi ENE 16.1 mph - N/A   Scattered Clouds
2:54 PM 84.9 °F 94.1 °F 75.9 °F 74% 29.91 in 10.0 mi ENE 16.1 mph - N/A   Scattered Clouds
3:54 PM 84.9 °F 93.3 °F 75.0 °F 72% 29.91 in 10.0 mi ENE 17.3 mph - N/A   Scattered Clouds
4:54 PM 82.9 °F 90.2 °F 75.0 °F 77% 29.92 in 10.0 mi ENE 13.8 mph - N/A   Partly Cloudy
5:54 PM 82.0 °F 88.6 °F 75.0 °F 79% 29.94 in 10.0 mi ENE 15.0 mph - N/A   Scattered Clouds
6:54 PM 82.0 °F 88.6 °F 75.0 °F 79% 29.94 in 10.0 mi ENE 12.7 mph - N/A   Scattered Clouds
7:54 PM 81.0 °F 87.3 °F 75.9 °F 85% 29.97 in 10.0 mi ENE 13.8 mph - N/A   Scattered Clouds
8:54 PM 79.0 °F - 75.0 °F 88% 29.98 in 10.0 mi East 10.4 mph - 0.08 in   Partly Cloudy
9:54 PM 81.0 °F 87.9 °F 77.0 °F 88% 29.98 in 10.0 mi ENE 15.0 mph - N/A   Partly Cloudy
10:28 PM 80.6 °F 87.1 °F 77.0 °F 89% 29.91 in 10.0 mi East 12.7 mph - N/A   Mostly Cloudy
10:54 PM 80.1 °F 85.4 °F 75.9 °F 87% 29.99 in 10.0 mi East 11.5 mph - 0.00 in Rain Light Rain
11:01 PM 80.6 °F 86.2 °F 75.2 °F 84% 29.92 in 10.0 mi East 12.7 mph - 0.00 in   Overcast
11:29 PM 78.8 °F - 73.4 °F 83% 29.92 in 7.0 mi East 12.7 mph 29.9 mph 0.00 in Rain Light Rain
11:54 PM 77.0 °F - 75.0 °F 94% 29.98 in 7.0 mi East 6.9 mph - 0.12 in Rain Light Rain